Terminal Aerodrome Forecast
Issued by NWS State College, PA

Home | Current Version | Previous Version | Text Only | Print | Product List | Glossary On
Versions: 1 2 3 4 5 6 7 8 9 10 11 12 13 14 15 16 17 18 19 20 21 22 23 24 25 26 27 28 29 30 31 32 33 34 35 36 37 38 39 40 41 42 43 44 45 46 47 48 49 50
000
FTUS41 KCTP 040844 AAA
TAFIPT
TAF AMD
KIPT 040844Z 0409/0506 00000KT 6SM BR SKC
     FM040915 00000KT 4SM BR SKC
     FM041000 00000KT 3SM BR VCFG BKN004
     FM041300 VRB02KT 4SM BR SCT004
     FM041400 08005KT P6SM SCT050
     FM042000 09005KT P6SM VCSH BKN050
     FM050000 10005KT P6SM BKN040=

USA.gov is the U.S. government's official web portal to all federal, state and local government web resources and services.